阿斯特拉 2F星 (ASTRA 2F)

导读

ASTRA 2F卫星由SES于2012年9月28日发射,是SES Astra系列中的通信卫星。该卫星定点于地球静止轨道28.2°E位置,主要为欧洲地区提供广播、宽带和数字电视传输服务,替换了老旧卫星增强信号覆盖能力。它搭载多频段转发器,具备强大的信号功率,支持高清和超高清电视广播,为英国、德国等欧洲国家提供稳定的通信广播服务,目前已服役十余年,仍持续发挥关键作用。

Basic Information
目录编号:
38778
目录名称:
ASTRA 2F
国际标识:
2012-051A
轨道中心:
EARTH
卫星名称:
阿斯特拉 2F星
卫星全名:
阿斯特拉 2F星 (ASTRA 2F)
卫星状态:
在轨 (已飞行5008 天)
发射日期:
2012-09-28 UTC
国别 :
(SES)
星等 :
--
Orbit Information
数据来源 国际轨道数据 AOE轨道数据
星历时间 2026-06-15T07:03:00+0800
8小时前
查看轨道信息
2026-06-15T08:00:00+0800
7小时前
查看轨道信息
半长轴 42165.625km 42165.597km
偏心率 0.0001385 0.0001445
轨道倾角 0.068° 0.068°
近地点辐角 282.926° 282.752°
升交点赤经 258.567° 257.803°
平近点角 95.701° 110.927°
近地点 35781.648km 35781.367km
远地点 35793.328km 35793.553km
周期 1436.143分钟 1436.141分钟
每日圈数 1.002686 1.002687
Detailed Information
卫星平台:
Eurostar E3000
平衡模式:
三轴稳定
覆盖范围:
全球
运营商:
欧洲卫星公司
运营商所在国:
卢森堡
制造商(研发单位):
空客防务与航天公司
制造商所在国:
法国大都会
使用方式:
暂无
Satellite Introduction
阿斯特拉卫星是由SES阿斯特拉运营的商业通信卫星,主要提供电视直播到户业务。Astra卫星包括三个系列共19颗卫星,分别定点在三个不同轨位:Astra-1系列包括十三颗卫星,定点东经19.2度;Astra-2系列包括4颗卫星,定点东经28.2度;Astra-3系列包括2颗卫星,定点东经23.5度。该卫星仍在工作。
2D Orbit Map
3D Orbit Map
Orbit Altitude Analysis Chart
Orbit Inclination Analysis Chart
Orbit Comprehensive Analysis Chart
View Comprehensive Chart